Regional Weather Roundup
Issued by NWS Grand Forks, ND

Home | Current Version | Previous Version | Graphics & Text | Print | Product List | Glossary On
Versions: 1 2 3 4 5 6 7 8 9 10 11 12 13 14 15 16 17 18 19 20 21 22 23 24 25 26 27 28 29 30 31 32 33 34 35 36 37 38 39 40 41 42 43 44 45 46 47 48 49 50
184
ASUS43 KFGF 070331
RWRFGF
PRAIRIE TO PINES  WEATHER ROUNDUP
NATIONAL WEATHER SERVICE EASTERN NORTH DAKOTA/GRAND FORKS ND
900 PM CST TUE DEC 06 2016

 **SATELLITE DATA USED TO AUGMENT SKY COVER AT AUTOMATED STATIONS**
 *****  WEATHER ACROSS EASTERN NORTH DAKOTA  *****

CITY           SKY/WX    TMP DP  RH WIND       PRES   REMARKS
GRAND FORKS    LGT SNOW  18  13  80 NW28G36   29.67R BLWGSNOWWCI  -1
GRAND FRKS AFB LGT SNOW  18  12  79 NW26G35   29.68R WCI  -1
GRAND FRKS NWS   N/A     18 N/A N/A W24         N/A  WCI   0
DEVILS LAKE    SNOW      10   7  87 W37       29.75R VSB 1/2 WCI -14
FARGO          MOCLDY    15   8  73 W30G45    29.73R WCI  -5
WAHPETON ARPT  CLOUDY    16  10  79 W25G43    29.80R WCI  -3
$$

 ***** WEATHER ACROSS CENTRAL AND WESTERN NORTH DAKOTA  *****

CITY           SKY/WX    TMP DP  RH WIND       PRES   REMARKS
BISMARCK       CLOUDY     6   2  83 W21G36    30.03R WCI -14
MINOT          LGT SNOW   6   1  80 W31G41    29.96R WCI -18
JAMESTOWN      LGT SNOW   9   5  84 NW30G43   29.85R VSB 3/4 WCI -14
MINOT AFB      LGT SNOW   5   0  78 NW35G41   29.95R VSB 3/4 WCI -20
GARRISON         N/A      4   0  83 NW30G40   29.98R WCI -21
WILLISTON      CLOUDY     4  -4  69 NW20G28   30.14R WCI -17
DICKINSON      CLOUDY     2  -5  72 NW25      30.04R HAZE    WCI -22
HETTINGER      CLOUDY     2  -3  80 NW26G33   30.07R WCI -22
$$

 *****  OTHER AIRPORT OBSERVATIONS IN OUR AREA  *****

CITY           SKY/WX    TMP DP  RH WIND       PRES   REMARKS
WALHALLA       LGT SNOW  18  18 100 NW28G37   29.67R VSB 3/4 WCI  -1
GRAFTON AIRPOR CLOUDY    18  18 100 NW30G44   29.65S FOG     WCI  -2
VALLEY CITY AR LGT SNOW  10  10 100 NW33G48   29.82R VSB 3/4 WCI -13
CANDO          CLOUDY    10   9  92 NW29G39   29.80R FOG     WCI -11
CAVALIER APRT  FOG       19  18  93 NW25G39   29.64R VSB 3/4 WCI   2
GWINNER        CLOUDY    14  10  85 W32G41    29.84R WCI  -7
SHEYENNE NWR     N/A     14   7  72 NW25      29.95  WCI  -5
ROLLA          SNOW      10  10 100 NW36G49   29.76R VSB 1/2 WCI -13
 ***** THE ABOVE OBSERVATIONS ARE NON NWS ARE NOT QUALITY
       CONTROLLED AND MAY MIS-REPORT RAIN FOR SNOW...
$$

  *****  WEATHER ACROSS NORTHERN MINNESOTA  *****

CITY           SKY/WX    TMP DP  RH WIND       PRES   REMARKS
FLAG ISLAND    CLOUDY    23  19  86 W5        29.43S WCI  17
WARROAD        CLOUDY    19  18  93 SW5       29.45S WCI  13
ROSEAU         LGT SNOW  25  19  80 W6        29.46S WCI  18
HALLOCK        SNOW      21  19  93 NW37G46   29.56R VSB 1/2 WCI   1
THF RVR FALLS  LGT SNOW  21  19  92 NW29G37   29.55R VSB 1   WCI   3
BAUDETTE       CLOUDY    21  18  88 CALM      29.44R
WASKISH        CLOUDY    25  21  86 W12G18    29.46R WCI  14
CROOKSTON      LGT SNOW  19  18  93 NW35      29.63R VSB 3/4 WCI  -1
STEPHEN NDAWN    N/A     21  19  93 NW26        N/A  WCI   4
GREENBUSH NDAW   N/A     21  21 100 W26         N/A  WCI   4
$$
  *****  WEATHER ACROSS CENTRAL AND WEST MINNESOTA  *****

CITY           SKY/WX    TMP DP  RH WIND       PRES   REMARKS
FOSSTON        LGT SNOW  18  16  93 W22G32    29.57R WCI   0
BEMIDJI        LGT SNOW  20  17  88 W21G30    29.51R WCI   3
PARK RAPIDS    LGT SNOW  17  11  77 W25G31    29.58R VSB 3/4 WCI  -1
ELBOW LAKE     LGT SNOW  14  11  91 NW21G33   29.78R VSB 3/4 WCI  -4
WADENA         LGT SNOW  16  10  79 W17G28    29.65R WCI   0
DETROIT LAKES  LGT SNOW  16  12  86 W25G33    29.66R WCI  -3
MOORHEAD       CLOUDY    14   9  79 W28       29.75R WCI  -6
FERGUS FALLS   LGT SNOW  14  10  85 NW30G37   29.81R WCI  -7
MORRIS MN      LGT SNOW  16  10  79 W30G36    29.81R WCI  -4
STAPLES        LGT SNOW  16  12  86 W22       29.65R WCI  -2
$$
  *****  WEATHER ELSEWHERE ACROSS MINNESOTA  *****

CITY           SKY/WX    TMP DP  RH WIND       PRES   REMARKS
DULUTH         LGT SNOW  20  16  84 SW18G26   29.49R FOG     WCI   5
INTRNTL FALLS  LGT SNOW  20  16  84 CALM      29.42R FOG
ELY            LGT SNOW  19  18  93 SW7       29.42R WCI  10
CLOQUET        LGT SNOW  19  14  79 SW13      29.52R WCI   7
WHEATON        LGT SNOW  16  12  86 W23G35    29.85R WCI  -2
BRAINERD       LGT SNOW  18  13  80 SW18G29   29.61R WCI   2
HIBBING        LGT SNOW  22  18  85 W9G18     29.45R FOG     WCI  12
ALEXANDRIA     LGT SNOW  15  12  88 W21G37    29.74R VSB 1   WCI  -2
SAINT CLOUD    LGT SNOW  17  12  80 W18G32    29.75R WCI   1
MINNEAPOLIS    FLURRIES  19  10  68 W20G33    29.80R WCI   3
$$

  *****  WEATHER ACROSS SOUTH DAKOTA  *****

CITY           SKY/WX    TMP DP  RH WIND       PRES   REMARKS
SIOUX FALLS    CLEAR     13   5  70 W23G33    30.01R WCI  -6
BROOKINGS      CLEAR     10   4  76 W28G33    29.93R WCI -12
WATERTOWN      CLOUDY    10   5  80 W17G33    29.89R WCI  -8
HURON          CLEAR     11   4  73 NW21G33   30.05R WCI  -8
SISSETON         N/A     14   7  73 NW32G44   29.83R WCI  -7
ABERDEEN       CLOUDY    11   1  64 W28G43    29.96R WCI -10
MITCHELL       CLEAR     13   5  70 NW16G30   30.08R WCI  -3
PIERRE         MOCLDY    11   4  73 NW25G44   30.07R WCI -10
MOBRIDGE       PTCLDY     8  -2  63 NW24G37   30.04R WCI -13
RAPID CITY     CLEAR      4  -2  76 N15       30.07R WCI -14
$$

  *****  SOME WEATHER IN NEARBY STATES *****

CITY           SKY/WX    TMP DP  RH WIND       PRES   REMARKS
GLASGOW MT     CLOUDY     1  -7  68 NW28      30.23R WCI -24
GREAT FALLS MT CLOUDY     0  -7  72 NW9       30.25R WCI -15
CHEYENNE WY    LGT SNOW  13   9  84 E8        29.87R FOG     WCI   2
SCOTTSBLUFF NE CLOUDY    17   3  54 N6        30.00R WCI   9
OMAHA NE       CLEAR     26  10  50 NW13      30.11R WCI  15
DES MOINES IA  CLEAR     27  14  58 W13       30.03R WCI  16
DAVENPORT IA   CLEAR     27  21  78 W13       29.99S WCI  16
CHICAGO IL     PTCLDY    28  21  75 W13       29.94R WCI  17
EAU CLAIRE WI  FLURRIES  21  14  74 SW17G30   29.77R WCI   7
LA CROSSE WI   CLOUDY    26  16  65 SW16G23   29.87R WCI  14
$$

  *****  SOME NATIONAL WEATHER *****

CITY           SKY/WX    TMP DP  RH WIND       PRES   REMARKS
LA GUARDIA NY  RAIN      43  38  82 E17       29.92F
RALEIGH NC     CLOUDY    43  40  89 W6        29.84S
ATLANTA GA     CLOUDY    55  51  86 NW9       29.93R
NEW ORLEANS LA CLOUDY    57  55  93 NE5       30.03S
OKLAHOMA CITY  CLOUDY    40  20  44 N10       30.09S
ALBUQUERQUE NM CLOUDY    38  14  37 CALM      29.85R
SALT LAKE CITY PTCLDY    26  20  77 N9        29.89R WCI  17
LOS ANGELES CA CLOUDY    57  53  86 W9        29.99R
BOISE ID       PTCLDY    21  18  88 W7        30.06R WCI  12
SEATTLE WA     MOCLDY    35  24  64 E6        30.28R
$$

*** WEATHER ACROSS MANITOBA...SASKATCHEWAN AND ONTARIO ***
                ***ONTARIO***

CITY           SKY/WX    TMP DP  RH WIND       PRES   REMARKS
GERALDTON      LGT SNOW  32  30  93 E13       29.45F WCI  22
THUNDER BAY    FLURRIES  27  21  80 SW13      29.51S WCI  16
SIOUX LOOKOUT  FLURRIES  23  18  80 SW5       29.41S WCI  17
TORONTO        DRIZZLE   37  36  93 SE12G17   29.75F
BIG TROUT LK   LGT SNOW  18  14  86 NE10G17   29.74F WCI   6
PICKLE LAKE    NOT AVBL
DRYDEN         LGT SNOW  21  19  93 S7        29.40S WCI  13
KENORA         LGT SNOW  21  19  93 SW3       29.41R
$$
                *** MANITOBA***

CITY           SKY/WX    TMP DP  RH WIND       PRES   REMARKS
BRANDON        FLURRIES  12   7  79 NW29G37   29.82R WCI  -9
DAUPHIN        LGT SNOW  18  12  79 NW22G31   29.87R WCI   0
ISLAND LAKE    NOT AVBL
PILOT MOUND      N/A     12  10  92 NW32G38     N/A  WCI -10
THE PAS        FLURRIES  16  10  79 NW20      30.03R WCI  -1
THOMPSON       FLURRIES  16  12  86 N16       30.00  WCI   0
WINNIPEG       LGT SNOW  25  23  93 NW26G33   29.56R VSB 1   WCI   9
LYNN LAKE      LGT SNOW   9   7  92 N8        30.12R WCI  -4
CHURCHILL      FLURRIES  27  25  93 NE25G32   30.04R WCI  11
GILLAM         PTCLDY    16  12  86 N14       29.98R WCI   1
$$
                ***SASKATCHEWAN***

CITY           SKY/WX    TMP DP  RH WIND       PRES   REMARKS
ESTEVAN        LGT SNOW   3   0  85 NW30G38   30.05R VSB 1   WCI -21
KINDERSLEY     PTCLDY    -4  -9  77 NW14G20   30.27R WCI -24
LLOYDMINSTER   CLEAR     -4  -9  77 NW14G21   30.30R WCI -24
PRINCE ALBERT  FLURRIES   3  -4  72 NW9       30.19R WCI -11
REGINA         CLOUDY     3  -2  78 NW22G31   30.13R WCI -19
YORKTON        FLURRIES   9   3  78 NW25G33   29.99S WCI -13
N. BATTLEFORD  CLOUDY     0  -6  78 NW15G22   30.29R WCI -20
LA RONGE       FLURRIES   9   3  78 W12       30.17R WCI  -6
SASKATOON      MOCLDY     3  -4  72 NW16G23   30.23R WCI -16
SWIFT CURRENT  PTCLDY    -4  -8  84 NW21      30.19R WCI -28
$$
NOTE: THESE ARE AUTOMATED STATIONS WITH LIMITED QUALITY CONTROL
      "FAIR" INDICATES FEW OR NO CLOUDS BELOW 12,000 FEET WITH NO
      SIGNIFICANT WEATHER AND/OR OBSTRUCTIONS TO VISIBILITY.
      SKY/WX - SKY CONDITION AND SIGNIFICANT WEATHER.
      TMP - AIR TEMPERATURE.    DP   - DEWPOINT TEMPERATURE.
      RH  - RELATIVE HUMIDITY.  PRES - PRESSURE.
      HX  - HEAT INDEX.         WCI  - WIND CHILL INDEX.
$




USA.gov is the U.S. government's official web portal to all federal, state and local government web resources and services.